CW7359 Weather Reports


Display with metric or nautical units.
time (UTC)temp
F
wind
direction
speed
MPH
gust
MPH
rain 1hr
in
rain 24hr
in
rain mn
in
humidity
%
barometer
mb
20260507095128 57 304 0.0 0.0 0.00 0.00 0.00 82 1016.3
20260507094627 57 305 0.0 0.0 0.00 0.00 0.00 82 1016.4
20260507094127 57 305 0.0 0.0 0.00 0.00 0.00 82 1016.5
20260507093627 57 304 0.0 0.0 0.00 0.00 0.00 82 1016.5
20260507093125 57 304 0.0 0.0 0.00 0.00 0.00 81 1016.5
20260507092626 58 305 0.0 0.0 0.00 0.00 0.00 81 1016.6
20260507092125 58 304 0.0 0.0 0.00 0.00 0.00 81 1016.5
20260507091623 58 305 0.0 0.0 0.00 0.00 0.00 81 1016.7
20260507091124 58 305 0.0 0.0 0.00 0.00 0.00 81 1016.7
20260507090623 58 305 0.0 0.0 0.00 0.00 0.00 81 1016.7
20260507090123 58 304 0.0 0.0 0.00 0.00 0.00 81 1016.8
20260507085623 58 304 0.0 0.0 0.00 0.00 0.00 81 1016.8
20260507085122 58 305 0.0 0.0 0.00 0.00 0.00 81 1016.9
20260507084621 58 304 0.0 0.0 0.00 0.00 0.00 81 1017.1
20260507084122 58 305 0.0 0.0 0.00 0.00 0.00 81 1017.2
20260507083620 58 304 0.0 0.0 0.00 0.00 0.00 81 1017.2
20260507083122 58 304 0.0 0.0 0.00 0.00 0.00 81 1017.2
20260507082620 58 304 0.0 0.0 0.00 0.00 0.00 81 1017.2
20260507082119 58 305 0.0 0.0 0.00 0.00 0.00 81 1017.2
20260507081620 58 305 0.0 0.0 0.00 0.00 0.00 81 1017.2
20260507081118 59 305 0.0 0.0 0.00 0.00 0.00 81 1017.2
20260507080618 59 305 0.0 0.0 0.00 0.00 0.00 81 1017.3
20260507080138 59 305 0.0 0.0 0.00 0.00 0.00 81 1017.3
20260507075617 59 305 0.0 0.0 0.00 0.00 0.00 81 1017.4
20260507075117 59 305 0.0 0.0 0.00 0.00 0.00 81 1017.3
20260507074616 59 305 0.0 0.0 0.00 0.00 0.00 81 1017.4
20260507074114 59 304 0.0 0.0 0.00 0.00 0.00 81 1017.3
20260507073634 59 304 0.0 0.0 0.00 0.00 0.00 81 1017.3
20260507073114 59 305 0.0 0.0 0.00 0.00 0.00 81 1017.4
20260507072614 59 304 0.0 0.0 0.00 0.00 0.00 81 1017.4
20260507072133 59 305 0.0 0.0 0.00 0.00 0.00 81 1017.4
20260507071635 60 305 0.0 0.0 0.00 0.00 0.00 81 1017.3
20260507071132 60 304 0.0 0.0 0.00 0.00 0.00 81 1017.3
20260507070633 60 305 0.0 0.0 0.00 0.00 0.00 83 1017.5
20260507070132 60 305 0.0 1.0 0.00 0.00 0.00 81 1017.5
20260507065625 60 305 0.0 1.0 0.00 0.00 0.00 81 1017.6
20260507065126 60 305 0.0 2.0 0.00 0.00 0.00 81 1017.7
20260507064627 60 304 0.0 2.0 0.00 0.00 0.00 81 1017.7
20260507064127 60 304 0.0 2.0 0.00 0.00 0.00 81 1017.7
20260507063627 60 305 1.0 3.0 0.00 0.00 0.00 81 1017.8
20260507063126 60 305 2.0 4.0 0.00 0.00 0.00 81 1017.8
20260507062625 60 305 2.0 4.0 0.00 0.00 0.00 80 1017.7
20260507062146 60 287 1.0 4.0 0.00 0.00 0.00 80 1017.7
20260507061625 60 287 1.0 3.0 0.00 0.00 0.00 80 1018.3
20260507061125 60 296 1.0 4.0 0.00 0.00 0.00 80 1017.8
20260507060625 60 295 2.0 4.0 0.00 0.00 0.00 80 1017.7
20260507060146 60 273 2.0 3.0 0.00 0.00 0.00 80 1017.7
20260507055626 60 273 2.0 3.0 0.00 0.00 0.00 79 1017.7
20260507055127 61 272 1.0 2.0 0.00 0.00 0.00 79 1017.8
20260507054646 61 273 1.0 2.0 0.00 0.00 0.00 79 1017.7
20260507054125 61 273 1.0 2.0 0.00 0.00 0.00 78 1017.7
20260507053625 61 272 1.0 3.0 0.00 0.00 0.00 78 1017.7
20260507053126 61 272 1.0 3.0 0.00 0.00 0.00 78 1017.8
20260507052628 61 273 0.0 3.0 0.00 0.00 0.00 78 1017.8
20260507052125 61 273 1.0 3.0 0.00 0.00 0.00 78 1017.7
20260507051626 61 273 2.0 4.0 0.00 0.00 0.00 78 1017.8
20260507051123 61 306 1.0 3.0 0.00 0.00 0.00 78 1017.8
20260507050623 61 307 2.0 3.0 0.00 0.00 0.00 78 1017.7
20260507050123 61 327 1.0 3.0 0.00 0.00 0.00 78 1017.7
20260507045624 61 327 1.0 2.0 0.00 0.00 0.00 77 1017.6
20260507045123 61 328 1.0 2.0 0.00 0.00 0.00 77 1017.6
20260507044621 61 327 1.0 4.0 0.00 0.00 0.00 77 1017.6
20260507044119 61 328 0.0 4.0 0.00 0.00 0.00 77 1017.6
20260507043619 61 308 2.0 4.0 0.00 0.00 0.00 77 1017.6
20260507043141 61 286 2.0 3.0 0.00 0.00 0.00 77 1017.5
20260507042619 61 256 2.0 3.0 0.00 0.00 0.00 78 1017.5
20260507042120 61 254 2.0 4.0 0.00 0.00 0.00 78 1017.5
20260507041620 61 294 2.0 4.0 0.00 0.00 0.00 77 1017.4
20260507041120 61 298 2.0 8.0 0.00 0.00 0.00 77 1017.4
20260507040619 62 296 4.0 8.0 0.00 0.00 0.00 77 1017.3
20260507040119 62 311 3.0 6.0 0.00 0.00 0.00 77 1017.3
20260507035618 62 287 2.0 5.0 0.00 0.00 0.00 77 1017.3
20260507035118 62 256 3.0 8.0 0.00 0.00 0.00 76 1017.3
20260507034636 62 302 3.0 8.0 0.00 0.00 0.00 76 1017.3
20260507034153 62 311 2.0 5.0 0.00 0.00 0.00 76 1017.2
20260507033631 62 289 2.0 7.0 0.00 0.00 0.00 75 1017.1
20260507033130 62 316 2.0 6.0 0.00 0.00 0.00 75 1017.1
20260507032631 63 283 3.0 6.0 0.00 0.00 0.00 74 1016.9
20260507032129 63 291 2.0 6.0 0.00 0.00 0.00 74 1017.0
20260507031629 63 319 2.0 9.0 0.00 0.00 0.00 73 1017.0
20260507031127 63 303 4.0 9.0 0.00 0.00 0.00 72 1016.9
20260507030625 63 313 3.0 8.0 0.00 0.00 0.00 72 1016.9
20260507030125 64 313 4.0 8.0 0.00 0.00 0.00 71 1016.8
20260507025626 64 313 5.0 8.0 0.00 0.00 0.00 71 1016.8
20260507025126 64 349 4.0 8.0 0.00 0.00 0.00 70 1016.8
20260507024627 64 279 3.0 8.0 0.00 0.00 0.00 69 1016.7
20260507024126 64 291 2.0 8.0 0.00 0.00 0.00 68 1016.6
20260507023626 65 319 4.0 7.0 0.00 0.00 0.00 67 1016.6
20260507023127 65 323 3.0 6.0 0.00 0.00 0.00 68 1016.5
20260507022626 65 295 4.0 8.0 0.00 0.00 0.00 66 1016.5
20260507022124 65 288 4.0 10.0 0.00 0.00 0.00 66 1016.5
20260507021625 65 277 5.0 10.0 0.00 0.00 0.00 65 1016.6
20260507021125 66 295 5.0 10.0 0.00 0.00 0.00 65 1016.4
20260507020625 66 304 5.0 10.0 0.00 0.00 0.00 64 1016.5
20260507020125 66 304 4.0 11.0 0.00 0.00 0.00 63 1016.5
20260507015626 67 296 5.0 10.0 0.00 0.00 0.00 62 1016.4
20260507015126 67 296 5.0 10.0 0.00 0.00 0.00 62 1016.4
20260507014626 68 281 5.0 11.0 0.00 0.00 0.00 61 1016.3
20260507014126 68 280 5.0 11.0 0.00 0.00 0.00 61 1016.4
20260507013625 68 325 3.0 9.0 0.00 0.00 0.00 60 1016.4
20260507013147 68 252 4.0 11.0 0.00 0.00 0.00 60 1016.3
20260507012626 68 318 6.0 9.0 0.00 0.00 0.00 59 1016.3
20260507012125 68 283 4.0 10.0 0.00 0.00 0.00 59 1016.3
20260507011646 69 321 4.0 10.0 0.00 0.00 0.00 58 1016.3
20260507011126 69 346 5.0 10.0 0.00 0.00 0.00 58 1016.3
20260507010626 69 299 3.0 10.0 0.00 0.00 0.00 58 1016.2
20260507010147 69 307 3.0 9.0 0.00 0.00 0.00 59 1016.3
20260507005626 69 323 5.0 9.0 0.00 0.00 0.00 58 1016.2
20260507005124 69 302 4.0 12.0 0.00 0.00 0.00 58 1016.2
20260507004623 70 277 7.0 12.0 0.00 0.00 0.00 57 1016.2
20260507004123 70 256 4.0 12.0 0.00 0.00 0.00 59 1016.2
20260507003621 70 225 4.0 12.0 0.00 0.00 0.00 60 1016.1
20260507003121 70 291 7.0 10.0 0.00 0.00 0.00 59 1016.1
20260507002621 70 309 3.0 10.0 0.00 0.00 0.00 59 1016.1
20260507002122 70 271 5.0 10.0 0.00 0.00 0.00 58 1016.1
20260507001621 70 284 4.0 11.0 0.00 0.00 0.00 57 1016.1
20260507001119 70 315 6.0 13.0 0.00 0.00 0.00 58 1016.0
20260507000618 70 247 6.0 13.0 0.00 0.00 0.00 58 1015.9
20260507000118 70 213 5.0 11.0 0.00 0.00 0.00 58 1015.9
20260506235617 70 275 7.0 11.0 0.00 0.00 0.00 59 1015.9
20260506235118 70 260 4.0 11.0 0.00 0.00 0.00 60 1015.9
20260506234617 70 275 5.0 12.0 0.00 0.00 0.00 59 1015.9
20260506234116 70 276 7.0 13.0 0.00 0.00 0.00 60 1016.0
20260506233617 70 318 7.0 13.0 0.00 0.00 0.00 60 1015.9
20260506233137 70 248 7.0 12.0 0.00 0.00 0.00 59 1015.9
20260506232635 69 244 7.0 13.0 0.00 0.00 0.00 60 1015.9
20260506232115 70 265 5.0 13.0 0.00 0.00 0.00 59 1015.8
20260506231635 70 266 8.0 14.0 0.00 0.00 0.00 59 1015.9
20260506231134 70 345 7.0 14.0 0.00 0.00 0.00 59 1015.8
20260506230652 71 290 9.0 14.0 0.00 0.00 0.00 57 1015.9
20260506230129 71 242 7.0 16.0 0.00 0.00 0.00 59 1015.8
20260506225650 71 286 6.0 13.0 0.00 0.00 0.00 58 1015.9
20260506225128 70 300 9.0 13.0 0.00 0.00 0.00 58 1015.8
20260506224643 71 256 8.0 13.0 0.00 0.00 0.00 58 1015.9
20260506224121 71 308 6.0 12.0 0.00 0.00 0.00 57 1016.0
20260506223620 71 246 6.0 14.0 0.00 0.00 0.00 57 1016.1
20260506223119 71 258 9.0 14.0 0.00 0.00 0.00 56 1016.1
20260506222620 71 288 5.0 13.0 0.00 0.00 0.00 56 1016.1
20260506222139 71 290 6.0 14.0 0.00 0.00 0.00 56 1016.1
20260506221617 71 302 9.0 17.0 0.00 0.00 0.00 57 1016.2
20260506221114 71 250 6.0 17.0 0.00 0.00 0.00 58 1016.1
20260506220615 71 249 8.0 15.0 0.00 0.00 0.00 57 1016.4
20260506220133 71 250 7.0 16.0 0.00 0.00 0.00 57 1016.4
20260506215633 72 275 7.0 16.0 0.00 0.00 0.00 56 1016.4
20260506215132 72 295 4.0 12.0 0.00 0.00 0.00 56 1016.4
20260506214631 72 236 6.0 11.0 0.00 0.00 0.00 56 1016.4
20260506214128 72 250 4.0 19.0 0.00 0.00 0.00 58 1016.5
20260506213628 71 216 9.0 19.0 0.00 0.00 0.00 58 1016.5
20260506213126 71 246 7.0 15.0 0.00 0.00 0.00 58 1016.5
20260506212628 71 218 7.0 16.0 0.00 0.00 0.00 58 1016.5
20260506212148 71 239 7.0 17.0 0.00 0.00 0.00 58 1016.6
20260506211626 71 248 8.0 14.0 0.00 0.00 0.00 58 1016.5
20260506211124 71 257 7.0 14.0 0.00 0.00 0.00 58 1016.5
20260506210624 71 282 8.0 17.0 0.00 0.00 0.00 58 1016.6
20260506210143 71 283 8.0 17.0 0.00 0.00 0.00 59 1016.6
20260506205620 71 298 9.0 14.0 0.00 0.00 0.00 58 1016.5
20260506205120 71 238 7.0 16.0 0.00 0.00 0.00 59 1016.6
20260506204619 71 325 6.0 16.0 0.00 0.00 0.00 58 1016.8
20260506204119 71 288 8.0 14.0 0.00 0.00 0.00 58 1016.7
20260506203620 71 246 8.0 15.0 0.00 0.00 0.00 58 1016.6
20260506203120 72 223 7.0 15.0 0.00 0.00 0.00 57 1016.7
20260506202620 71 210 7.0 14.0 0.00 0.00 0.00 58 1016.7
20260506202120 72 273 7.0 15.0 0.00 0.00 0.00 57 1016.8
20260506201620 72 240 8.0 15.0 0.00 0.00 0.00 56 1016.9
20260506201119 72 300 6.0 11.0 0.00 0.00 0.00 55 1016.8
20260506200619 72 250 8.0 15.0 0.00 0.00 0.00 56 1016.9
20260506200118 72 249 7.0 15.0 0.00 0.00 0.00 56 1016.9
20260506195636 72 229 7.0 16.0 0.00 0.00 0.00 57 1017.0
20260506195114 71 255 7.0 13.0 0.00 0.00 0.00 56 1017.0
20260506194614 72 295 7.0 12.0 0.00 0.00 0.00 55 1017.1
20260506194115 72 298 4.0 12.0 0.00 0.00 0.00 55 1017.1
20260506193634 72 345 5.0 10.0 0.00 0.00 0.00 54 1017.1
20260506193135 72 250 3.0 10.0 0.00 0.00 0.00 54 1017.1
20260506192614 72 292 4.0 11.0 0.00 0.00 0.00 54 1017.1
20260506192114 72 296 4.0 11.0 0.00 0.00 0.00 54 1017.1
20260506191634 72 5 3.0 9.0 0.00 0.00 0.00 53 1017.2
20260506191128 72 343 6.0 9.0 0.00 0.00 0.00 53 1017.2
20260506190628 71 244 5.0 15.0 0.00 0.00 0.00 54 1017.2
20260506190129 71 237 5.0 15.0 0.00 0.00 0.00 53 1017.3
20260506185629 72 244 5.0 10.0 0.00 0.00 0.00 52 1017.3
20260506185114 71 290 5.0 8.0 0.00 0.00 0.00 52 1017.3
20260506184614 71 337 5.0 10.0 0.00 0.00 0.00 52 1017.3
20260506184130 71 316 5.0 10.0 0.00 0.00 0.00 51 1017.4
20260506183630 71 281 5.0 10.0 0.00 0.00 0.00 52 1017.4
20260506183130 71 313 4.0 8.0 0.00 0.00 0.00 51 1017.6
20260506182628 70 329 3.0 9.0 0.00 0.00 0.00 53 1017.5
20260506182126 69 309 5.0 11.0 0.00 0.00 0.00 54 1017.7
20260506181626 69 286 2.0 11.0 0.00 0.00 0.00 54 1017.7
20260506181124 69 286 3.0 9.0 0.00 0.00 0.00 54 1017.8
20260506180624 68 248 6.0 10.0 0.00 0.00 0.00 55 1017.9
20260506180143 68 252 5.0 11.0 0.00 0.00 0.00 55 1018.0
20260506175640 68 295 3.0 11.0 0.00 0.00 0.00 56 1018.0
20260506175119 68 252 5.0 9.0 0.00 0.00 0.00 56 1018.1
20260506174618 67 309 3.0 10.0 0.00 0.00 0.00 56 1018.1
20260506174118 67 296 5.0 15.0 0.00 0.00 0.00 58 1018.2
20260506173637 67 271 7.0 15.0 0.00 0.00 0.00 58 1018.1
20260506173115 66 246 4.0 11.0 0.00 0.00 0.00 59 1018.1
20260506172636 66 245 4.0 11.0 0.00 0.00 0.00 59 1018.2
20260506172114 66 316 4.0 11.0 0.00 0.00 0.00 59 1018.4
20260506171635 66 334 3.0 10.0 0.00 0.00 0.00 61 1018.3
20260506171153 66 303 3.0 7.0 0.00 0.00 0.00 62 1018.4
20260506170631 64 151 2.0 7.0 0.00 0.00 0.00 64 1018.3
20260506170129 64 310 3.0 9.0 0.00 0.00 0.00 65 1018.3
20260506165629 64 292 5.0 9.0 0.00 0.00 0.00 65 1018.3
20260506165149 64 265 3.0 8.0 0.00 0.00 0.00 64 1018.3
20260506164626 63 309 3.0 8.0 0.00 0.00 0.00 65 1018.2
20260506164125 63 298 4.0 9.0 0.00 0.00 0.00 65 1018.2
20260506163646 63 313 4.0 9.0 0.00 0.00 0.00 65 1018.3
20260506163126 63 28 4.0 8.0 0.00 0.00 0.00 65 1018.3
20260506162625 63 313 3.0 6.0 0.00 0.00 0.00 65 1018.3
20260506162124 63 327 3.0 7.0 0.00 0.00 0.00 65 1018.3
20260506161622 63 347 3.0 7.0 0.00 0.00 0.00 66 1018.3
20260506161140 63 60 3.0 5.0 0.00 0.00 0.00 66 1018.3
20260506160620 63 349 2.0 5.0 0.00 0.00 0.00 66 1018.4
20260506160115 62 38 2.0 4.0 0.00 0.00 0.00 67 1018.3
20260506155632 62 355 2.0 5.0 0.00 0.00 0.00 67 1018.3
20260506155132 62 355 3.0 5.0 0.00 0.00 0.00 67 1018.3
20260506154651 62 68 2.0 6.0 0.00 0.00 0.00 67 1018.3
20260506154128 62 59 4.0 6.0 0.00 0.00 0.00 67 1018.4
20260506153627 61 55 4.0 6.0 0.00 0.00 0.00 68 1018.3
20260506153124 61 63 3.0 5.0 0.00 0.00 0.00 68 1018.3
20260506152624 61 51 3.0 6.0 0.00 0.00 0.00 68 1018.3
20260506152123 60 53 4.0 6.0 0.00 0.00 0.00 69 1018.4
20260506151621 60 29 4.0 6.0 0.00 0.00 0.00 69 1018.4
20260506151139 60 33 3.0 6.0 0.00 0.00 0.00 70 1018.4
20260506150616 59 50 4.0 6.0 0.00 0.00 0.00 70 1018.4
20260506150116 59 32 2.0 4.0 0.00 0.05 0.00 72 1018.4
20260506145614 58 5 3.0 6.0 0.00 0.05 0.00 73 1018.4
20260506145132 58 41 3.0 6.0 0.00 0.05 0.00 73 1018.4
20260506144630 57 52 3.0 4.0 0.00 0.05 0.00 74 1018.3
20260506144129 57 45 2.0 4.0 0.00 0.05 0.00 75 1018.4
20260506143646 56 47 2.0 4.0 0.00 0.05 0.00 76 1018.4
20260506143144 56 46 3.0 5.0 0.00 0.05 0.00 76 1018.3
20260506142623 56 52 4.0 5.0 0.00 0.05 0.00 76 1018.3
20260506142123 55 51 4.0 6.0 0.00 0.05 0.00 77 1018.3
20260506141624 55 37 4.0 6.0 0.00 0.05 0.00 78 1018.3
20260506141122 54 44 3.0 4.0 0.00 0.05 0.00 79 1018.3
20260506140620 54 45 2.0 3.0 0.00 0.05 0.00 79 1018.3
20260506140141 54 46 2.0 3.0 0.00 0.05 0.00 79 1018.4
20260506135640 54 69 2.0 4.0 0.00 0.05 0.00 79 1018.3
20260506135135 54 38 3.0 4.0 0.00 0.05 0.00 79 1018.3
20260506134654 54 36 3.0 4.0 0.00 0.05 0.00 79 1018.2
20260506134132 53 45 3.0 4.0 0.00 0.05 0.00 80 1018.1
20260506133630 53 61 3.0 4.0 0.00 0.05 0.00 80 1018.1
20260506133130 53 46 1.0 3.0 0.00 0.05 0.00 80 1018.0
20260506132628 53 45 2.0 4.0 0.00 0.05 0.00 80 1017.9
20260506132129 53 45 2.0 4.0 0.00 0.05 0.00 79 1018.0
20260506131629 53 48 2.0 4.0 0.00 0.05 0.00 79 1017.9
20260506131130 53 49 3.0 4.0 0.00 0.05 0.00 79 1017.8
20260506130631 53 57 2.0 4.0 0.00 0.05 0.00 79 1017.8
20260506130131 53 56 2.0 4.0 0.00 0.05 0.00 79 1017.7
20260506125631 53 57 2.0 4.0 0.00 0.05 0.00 79 1017.6
20260506125129 53 44 3.0 4.0 0.00 0.05 0.00 79 1017.6
20260506124648 53 40 2.0 4.0 0.00 0.05 0.00 79 1017.6
20260506124127 53 41 2.0 5.0 0.00 0.05 0.00 79 1017.6
20260506123647 53 46 3.0 5.0 0.00 0.05 0.00 80 1017.4
20260506123125 53 44 1.0 5.0 0.00 0.05 0.00 79 1017.6
20260506122625 53 44 2.0 5.0 0.00 0.05 0.00 80 1017.4
20260506122124 53 51 3.0 4.0 0.00 0.05 0.00 80 1017.4
20260506121643 53 48 3.0 5.0 0.00 0.05 0.00 80 1017.4
20260506121122 53 52 2.0 5.0 0.00 0.05 0.00 80 1017.2
20260506120641 53 32 0.0 0.0 0.00 0.05 0.00 80 1017.2
20260506120119 54 32 0.0 0.0 0.00 0.06 0.00 80 1017.3
20260506115619 54 31 0.0 0.0 0.00 0.06 0.00 79 1017.3
20260506115119 54 30 0.0 0.0 0.00 0.06 0.00 80 1017.2
20260506114619 54 30 0.0 0.0 0.00 0.06 0.00 79 1017.3
20260506114118 54 32 0.0 0.0 0.00 0.06 0.00 79 1017.3
20260506113639 54 32 0.0 0.0 0.00 0.06 0.00 79 1017.3
20260506113117 54 32 0.0 0.0 0.00 0.06 0.00 79 1017.3
20260506112617 54 32 0.0 0.0 0.00 0.06 0.00 80 1017.4
20260506112116 54 31 0.0 0.0 0.00 0.06 0.00 79 1017.3
20260506111634 54 31 0.0 0.0 0.00 0.06 0.00 80 1017.4
20260506111128 54 30 0.0 0.0 0.00 0.06 0.00 80 1017.3
20260506110627 54 31 0.0 0.0 0.00 0.06 0.00 80 1017.3
20260506110128 54 31 0.0 0.0 0.00 0.06 0.00 80 1017.4
20260506105628 54 31 0.0 0.0 0.00 0.06 0.00 80 1017.4
20260506105127 54 30 0.0 2.0 0.00 0.06 0.00 80 1017.4
20260506104625 54 32 1.0 3.0 0.00 0.06 0.00 80 1017.3
20260506104146 54 30 1.0 3.0 0.00 0.06 0.00 80 1017.4
20260506103626 54 280 0.0 0.0 0.00 0.06 0.00 80 1017.4
20260506103127 54 280 0.0 0.0 0.00 0.06 0.00 80 1017.3
20260506102628 54 280 0.0 0.0 0.00 0.06 0.00 80 1017.2
20260506102128 54 280 0.0 0.0 0.00 0.06 0.00 81 1017.2
20260506101629 54 280 0.0 1.0 0.00 0.06 0.00 81 1017.2
20260506101129 54 280 0.0 2.0 0.00 0.06 0.00 80 1017.2
20260506100629 54 280 0.0 0.0 0.00 0.06 0.00 80 1017.1
20260506100129 53 280 0.0 0.0 0.00 0.06 0.00 80 1017.0
20260506095628 54 280 0.0 0.0 0.00 0.06 0.00 80 1017.1